This is the latest recevied weather packets stored in our database for station/object ZS1OSS-13. If no packets are shown the sender has not sent any weather packets the latest 10 day(s).
| Time | Temp. | Humidity | Pressure | Rain* | Wind** | Luminosity | Snow |
|---|---|---|---|---|---|---|---|
| 1787758205 | 24.44° C | 44% | 1016.1 hPa | 0 mm | - | 52 W/m² | - |
| 1787757900 | 25° C | 43% | 1015.8 hPa | 0 mm | - | 71 W/m² | - |
| 1787757596 | 25° C | 44% | 1015.8 hPa | 0 mm | - | 87 W/m² | - |
| 1787757290 | 25.56° C | 44% | 1015.7 hPa | 0 mm | - | 99 W/m² | - |
| 1787756989 | 25° C | 43% | 1015.8 hPa | 0 mm | - | 106 W/m² | - |
| 1787756684 | 25° C | 43% | 1015.5 hPa | 0 mm | - | 125 W/m² | - |
| 1787756384 | 25.56° C | 43% | 1015.8 hPa | 0 mm | - | 147 W/m² | - |
| 1787756079 | 25° C | 43% | 1015.6 hPa | 0 mm | - | 175 W/m² | - |
| 1787755773 | 25° C | 43% | 1015.9 hPa | 0 mm | - | 186 W/m² | - |
| 1787755468 | 25.56° C | 43% | 1016.1 hPa | 0 mm | - | 184 W/m² | - |
| 1787755167 | 25° C | 43% | 1016.2 hPa | 0 mm | - | 218 W/m² | - |
| 1787754861 | 25.56° C | 43% | 1016.3 hPa | 0 mm | - | 226 W/m² | - |
| 1787754560 | 25° C | 44% | 1015.9 hPa | 0 mm | - | 257 W/m² | - |
| 1787754259 | 25.56° C | 45% | 1016.2 hPa | 0 mm | - | 207 W/m² | - |
| 1787753954 | 25.56° C | 45% | 1015.9 hPa | 0 mm | - | 263 W/m² | - |
| 1787753654 | 25.56° C | 44% | 1016.2 hPa | 0 mm | - | 245 W/m² | - |
| 1787753352 | 25° C | 44% | 1015.8 hPa | 0 mm | - | 259 W/m² | - |
| 1787753047 | 25.56° C | 45% | 1015.9 hPa | 0 mm | - | 318 W/m² | - |
| 1787752746 | 25.56° C | 45% | 1016.2 hPa | 0 mm | - | 343 W/m² | - |
| 1787752441 | 25.56° C | 45% | 1016.2 hPa | 0 mm | - | 369 W/m² | - |
| 1787752137 | 25.56° C | 46% | 1016.1 hPa | 0 mm | - | 392 W/m² | - |
| 1787751835 | 25.56° C | 44% | 1016.1 hPa | 0 mm | - | 372 W/m² | - |
| 1787751530 | 25.56° C | 44% | 1015.9 hPa | 0 mm | - | 314 W/m² | - |
| 1787751226 | 26.11° C | 44% | 1016.3 hPa | 0 mm | - | 428 W/m² | - |
| 1787750921 | 25.56° C | 45% | 1016.2 hPa | 0 mm | - | 432 W/m² | - |
* Rain latest hour (hover to see other rain measurements)
** Current wind speed in m/s (hover to see current wind gust speed)